FPO1901 EDDH-EGSS

Flight info

Callsign FPO1901
Flight time 1h 0m
Altitude 36000
Route WSN5G WSN N125 EKNON DCT NOGRO M40 RINIS
Aircraft E190/M-SDE3GILORVW/S

Departure

Time 2026-05-05 11:22
Airport Hamburg Helmut Schmidt Airport (EDDH)

Arrival

Time 2026-05-05 12:23
Airport London Stansted Airport (EGSS)
Time Latitude Longitude Altitude Speed Heading
2026-05-05 11:02 53.62700 9.99185 45 ft 0 kts 64°
2026-05-05 11:12 53.62699 9.99182 45 ft 0 kts 64°
2026-05-05 11:13 53.62698 9.99179 45 ft 0 kts 64°
2026-05-05 11:13 53.62698 9.99176 45 ft 0 kts 64°
2026-05-05 11:13 53.62697 9.99173 45 ft 0 kts 64°
2026-05-05 11:13 53.62696 9.99171 45 ft 0 kts 64°
2026-05-05 11:14 53.62695 9.99168 45 ft 1 kts 64°
2026-05-05 11:14 53.62693 9.99162 45 ft 1 kts 64°
2026-05-05 11:14 53.62689 9.99148 45 ft 3 kts 51°
2026-05-05 11:14 53.62671 9.99128 45 ft 3 kts
2026-05-05 11:15 53.62654 9.99110 45 ft 3 kts 103°
2026-05-05 11:15 53.62657 9.99097 45 ft 0 kts 152°
2026-05-05 11:17 53.62633 9.99118 42 ft 11 kts 153°
2026-05-05 11:18 53.62601 9.99151 43 ft 14 kts 139°
2026-05-05 11:18 53.62600 9.99386 42 ft 17 kts 78°
2026-05-05 11:18 53.62623 9.99566 43 ft 12 kts 78°
2026-05-05 11:18 53.62634 9.99695 43 ft 10 kts 80°
2026-05-05 11:19 53.62640 9.99742 43 ft 0 kts 76°
2026-05-05 11:20 53.62640 9.99743 43 ft 0 kts 76°
2026-05-05 11:21 53.62662 9.99822 42 ft 18 kts 46°
2026-05-05 11:21 53.62777 9.99817 43 ft 11 kts 333°
2026-05-05 11:21 53.62781 9.99813 44 ft 1 kts 333°
2026-05-05 11:21 53.62792 9.99804 44 ft 2 kts 333°
2026-05-05 11:22 53.62943 9.99675 46 ft 60 kts 333°
2026-05-05 11:22 53.63532 9.99158 49 ft 130 kts 332°
2026-05-05 11:22 53.64509 9.98344 142 ft 177 kts 334°
2026-05-05 11:22 53.65660 9.97245 813 ft 201 kts 331°
2026-05-05 11:23 53.66975 9.95962 1344 ft 238 kts 330°
2026-05-05 11:23 53.68389 9.94637 2040 ft 228 kts 337°
2026-05-05 11:23 53.69714 9.93619 2586 ft 188 kts 338°
2026-05-05 11:23 53.70842 9.92766 2586 ft 174 kts 337°
2026-05-05 11:24 53.71876 9.91305 1990 ft 226 kts 302°
2026-05-05 11:24 53.72279 9.88747 1944 ft 250 kts 265°
2026-05-05 11:24 53.71757 9.85902 2815 ft 248 kts 241°
2026-05-05 11:24 53.70867 9.83434 3714 ft 248 kts 239°
2026-05-05 11:25 53.69989 9.81003 4457 ft 249 kts 241°
2026-05-05 11:25 53.69306 9.78331 5197 ft 249 kts 252°
2026-05-05 11:25 53.68935 9.76493 5671 ft 249 kts 251°
2026-05-05 11:25 53.68366 9.73731 6439 ft 250 kts 252°
2026-05-05 11:26 53.67826 9.70982 7186 ft 250 kts 253°
2026-05-05 11:26 53.67287 9.68206 7911 ft 250 kts 251°
2026-05-05 11:26 53.66760 9.65553 8607 ft 249 kts 251°
2026-05-05 11:26 53.66213 9.62778 9331 ft 249 kts 251°
2026-05-05 11:27 53.65573 9.60075 9809 ft 260 kts 244°
2026-05-05 11:27 53.64716 9.57255 9948 ft 277 kts 242°
2026-05-05 11:27 53.63726 9.54445 9999 ft 291 kts 236°
2026-05-05 11:27 53.62532 9.51583 10013 ft 302 kts 235°
2026-05-05 11:28 53.61324 9.48746 10023 ft 302 kts 234°
2026-05-05 11:28 53.60126 9.45963 10133 ft 299 kts 234°
2026-05-05 11:28 53.58869 9.43050 10537 ft 301 kts 234°
2026-05-05 11:28 53.57638 9.40186 10968 ft 303 kts 234°
2026-05-05 11:29 53.56403 9.37298 11339 ft 304 kts 234°
2026-05-05 11:29 53.55192 9.34494 11766 ft 305 kts 234°
2026-05-05 11:29 53.53928 9.31566 12175 ft 304 kts 234°
2026-05-05 11:29 53.52709 9.28744 12545 ft 307 kts 234°
2026-05-05 11:30 53.51454 9.25846 12929 ft 307 kts 234°
2026-05-05 11:30 53.50193 9.22926 13319 ft 309 kts 234°
2026-05-05 11:30 53.48983 9.20148 13681 ft 311 kts 234°
2026-05-05 11:30 53.47666 9.17122 14082 ft 313 kts 234°
2026-05-05 11:31 53.46386 9.14168 14459 ft 314 kts 234°
2026-05-05 11:31 53.45125 9.11272 14826 ft 316 kts 234°
2026-05-05 11:31 53.43801 9.08233 15218 ft 317 kts 234°
2026-05-05 11:31 53.42498 9.05241 15596 ft 318 kts 234°
2026-05-05 11:32 53.41183 9.02231 15984 ft 319 kts 234°
2026-05-05 11:32 53.39912 8.99323 16348 ft 321 kts 234°
2026-05-05 11:32 53.38634 8.96400 16714 ft 323 kts 234°
2026-05-05 11:32 53.37260 8.93265 17112 ft 324 kts 235°
2026-05-05 11:33 53.36042 8.90141 17484 ft 326 kts 239°
2026-05-05 11:33 53.34924 8.86835 17871 ft 328 kts 242°
2026-05-05 11:33 53.33888 8.83435 18256 ft 329 kts 246°
2026-05-05 11:33 53.33062 8.79869 18634 ft 331 kts 248°
2026-05-05 11:34 53.32253 8.76333 19007 ft 332 kts 249°
2026-05-05 11:34 53.31446 8.72694 19388 ft 333 kts 249°
2026-05-05 11:34 53.30623 8.69056 19774 ft 335 kts 249°
2026-05-05 11:34 53.29831 8.65386 20159 ft 335 kts 249°
2026-05-05 11:35 53.29042 8.61777 20528 ft 338 kts 249°
2026-05-05 11:35 53.28246 8.58133 20902 ft 338 kts 249°
2026-05-05 11:35 53.27413 8.54445 21288 ft 339 kts 248°
2026-05-05 11:35 53.26621 8.50796 21656 ft 341 kts 251°
2026-05-05 11:36 53.25898 8.46995 22031 ft 342 kts 251°
2026-05-05 11:36 53.25177 8.43192 22404 ft 344 kts 252°
2026-05-05 11:36 53.24480 8.39489 22770 ft 345 kts 252°
2026-05-05 11:36 53.23756 8.35643 23148 ft 346 kts 252°
2026-05-05 11:37 53.23043 8.31868 23509 ft 348 kts 251°
2026-05-05 11:37 53.22298 8.27929 23897 ft 350 kts 252°
2026-05-05 11:37 53.21561 8.24052 24274 ft 351 kts 252°
2026-05-05 11:37 53.20822 8.20165 24651 ft 353 kts 252°
2026-05-05 11:38 53.20057 8.16256 25030 ft 354 kts 251°
2026-05-05 11:38 53.19328 8.12350 25399 ft 356 kts 252°
2026-05-05 11:38 53.18578 8.08361 25775 ft 357 kts 252°
2026-05-05 11:38 53.17843 8.04451 26142 ft 358 kts 252°
2026-05-05 11:39 53.17066 8.00335 26526 ft 358 kts 252°
2026-05-05 11:39 53.15595 7.92564 27253 ft 358 kts 252°
2026-05-05 11:39 53.14096 7.84673 27973 ft 356 kts 252°
2026-05-05 11:39 53.12594 7.76803 28705 ft 355 kts 252°
2026-05-05 11:40 53.11104 7.69010 29427 ft 352 kts 251°
2026-05-05 11:40 53.09678 7.61622 29928 ft 355 kts 251°
2026-05-05 11:40 53.08114 7.53547 30386 ft 358 kts 251°
2026-05-05 11:40 53.06578 7.45645 30829 ft 360 kts 251°
2026-05-05 11:41 53.05051 7.37826 31267 ft 360 kts 251°
2026-05-05 11:41 53.03495 7.29892 31714 ft 360 kts 251°
2026-05-05 11:41 53.01944 7.21974 32157 ft 360 kts 251°
2026-05-05 11:41 53.00355 7.14128 32594 ft 359 kts 251°
2026-05-05 11:42 52.98755 7.06267 33029 ft 358 kts 250°
2026-05-05 11:42 52.97247 6.98875 33444 ft 357 kts 250°
2026-05-05 11:42 52.95599 6.90831 33895 ft 354 kts 250°
2026-05-05 11:42 52.94043 6.83266 34315 ft 351 kts 250°
2026-05-05 11:43 52.92495 6.75770 34733 ft 347 kts 250°
2026-05-05 11:43 52.90925 6.68200 35050 ft 347 kts 250°
2026-05-05 11:43 52.89407 6.60891 35286 ft 348 kts 250°
2026-05-05 11:43 52.87820 6.53289 35527 ft 348 kts 250°
2026-05-05 11:44 52.86232 6.45716 35769 ft 348 kts 250°
2026-05-05 11:44 52.84662 6.38245 35939 ft 350 kts 250°
2026-05-05 11:44 52.83044 6.30586 35989 ft 355 kts 250°
2026-05-05 11:45 52.79701 6.14849 35987 ft 369 kts 250°
2026-05-05 11:45 52.76013 5.98679 35972 ft 382 kts 246°
2026-05-05 11:46 52.71769 5.82717 35962 ft 393 kts 245°
2026-05-05 11:46 52.67397 5.66438 35952 ft 389 kts 245°
2026-05-05 11:47 52.63015 5.50216 35946 ft 390 kts 245°
2026-05-05 11:47 52.58647 5.34174 35946 ft 390 kts 245°
2026-05-05 11:48 52.51985 5.09909 35946 ft 390 kts 245°
2026-05-05 11:48 52.47492 4.93685 35948 ft 390 kts 245°
2026-05-05 11:49 52.42976 4.77492 35955 ft 390 kts 244°
2026-05-05 11:49 52.38517 4.61608 35949 ft 389 kts 244°
2026-05-05 11:50 52.34036 4.45764 35942 ft 388 kts 244°
2026-05-05 11:50 52.29507 4.29853 35951 ft 388 kts 244°
2026-05-05 11:51 52.24998 4.14115 35953 ft 387 kts 243°
2026-05-05 11:51 52.20436 3.98301 35949 ft 386 kts 243°
2026-05-05 11:52 52.15902 3.82690 35948 ft 386 kts 243°
2026-05-05 11:52 52.11284 3.66888 35951 ft 387 kts 243°
2026-05-05 11:53 52.07475 3.53940 35964 ft 388 kts 243°
2026-05-05 11:53 52.05134 3.46011 35955 ft 389 kts 243°
2026-05-05 11:54 52.02832 3.38247 35973 ft 390 kts 243°
2026-05-05 11:54 52.00426 3.30155 35963 ft 391 kts 243°
2026-05-05 11:55 51.98103 3.22269 35971 ft 391 kts 246°
2026-05-05 11:55 51.96616 3.13792 35968 ft 394 kts 254°
2026-05-05 11:56 51.95794 3.05114 35974 ft 398 kts 260°
2026-05-05 11:56 51.95197 2.96239 35963 ft 399 kts 261°
2026-05-05 11:57 51.94614 2.87397 35974 ft 400 kts 261°
2026-05-05 11:57 51.94014 2.78403 35964 ft 400 kts 261°
2026-05-05 11:58 51.93410 2.69459 35972 ft 402 kts 260°
2026-05-05 11:58 51.92796 2.60454 35966 ft 402 kts 260°
2026-05-05 11:59 51.92173 2.51444 35966 ft 403 kts 261°
2026-05-05 11:59 51.91541 2.42411 34946 ft 413 kts 260°
2026-05-05 12:00 51.91217 2.37819 33881 ft 419 kts 259°
2026-05-05 12:00 51.90886 2.33090 32816 ft 424 kts 262°
2026-05-05 12:00 51.90751 2.28298 31758 ft 428 kts 264°
2026-05-05 12:00 51.90617 2.23459 30689 ft 431 kts 265°
2026-05-05 12:01 51.90507 2.18598 29617 ft 433 kts 265°
2026-05-05 12:01 51.90393 2.13715 28539 ft 435 kts 266°
2026-05-05 12:01 51.90276 2.08807 27454 ft 436 kts 266°
2026-05-05 12:01 51.90163 2.04057 26403 ft 436 kts 266°
2026-05-05 12:02 51.90035 1.98993 25282 ft 436 kts 266°
2026-05-05 12:02 51.89933 1.94092 24186 ft 436 kts 269°
2026-05-05 12:02 51.90413 1.89254 23081 ft 439 kts 285°
2026-05-05 12:02 51.91413 1.84663 22016 ft 438 kts 289°
2026-05-05 12:03 51.92593 1.80205 21057 ft 435 kts 295°
2026-05-05 12:03 51.93983 1.75889 20147 ft 429 kts 296°
2026-05-05 12:03 51.95371 1.71619 19305 ft 422 kts 297°
2026-05-05 12:03 51.96698 1.67578 18787 ft 408 kts 297°
2026-05-05 12:04 51.98007 1.63592 18228 ft 384 kts 297°
2026-05-05 12:04 51.99219 1.59897 17639 ft 360 kts 297°
2026-05-05 12:04 52.00349 1.56451 17104 ft 355 kts 297°
2026-05-05 12:04 52.01503 1.52918 16563 ft 352 kts 297°
2026-05-05 12:05 52.02633 1.49461 16045 ft 350 kts 297°
2026-05-05 12:05 52.03767 1.45983 15519 ft 347 kts 297°
2026-05-05 12:05 52.04892 1.42536 15000 ft 344 kts 297°
2026-05-05 12:05 52.06000 1.39122 14485 ft 340 kts 297°
2026-05-05 12:06 52.07099 1.35742 13981 ft 338 kts 297°
2026-05-05 12:06 52.08143 1.32527 13517 ft 335 kts 297°
2026-05-05 12:06 52.09228 1.29174 13001 ft 333 kts 297°
2026-05-05 12:06 52.10239 1.25855 12483 ft 332 kts 289°
2026-05-05 12:07 52.10598 1.22175 11960 ft 330 kts 270°
2026-05-05 12:07 52.10484 1.18449 11459 ft 328 kts 265°
2026-05-05 12:07 52.10224 1.14853 11119 ft 306 kts 263°
2026-05-05 12:07 52.09919 1.11540 11026 ft 290 kts 262°
2026-05-05 12:08 52.09596 1.08351 10985 ft 291 kts 261°
2026-05-05 12:08 52.09206 1.05106 10983 ft 293 kts 257°
2026-05-05 12:08 52.08697 1.01954 10969 ft 293 kts 256°
2026-05-05 12:08 52.08179 0.98787 10968 ft 293 kts 256°
2026-05-05 12:09 52.07635 0.95537 10970 ft 293 kts 255°
2026-05-05 12:09 52.07098 0.92354 10854 ft 294 kts 256°
2026-05-05 12:09 52.06560 0.89152 10584 ft 293 kts 256°
2026-05-05 12:09 52.06204 0.87035 10324 ft 291 kts 256°
2026-05-05 12:10 52.05513 0.82932 9810 ft 288 kts 255°
2026-05-05 12:10 52.04997 0.79880 9397 ft 271 kts 256°
2026-05-05 12:10 52.04518 0.77051 9068 ft 257 kts 256°
2026-05-05 12:10 52.04055 0.74313 8972 ft 249 kts 256°
2026-05-05 12:11 52.03618 0.71721 8974 ft 250 kts 256°
2026-05-05 12:11 52.03149 0.68983 8989 ft 252 kts 255°
2026-05-05 12:11 52.02832 0.67124 8986 ft 252 kts 256°
2026-05-05 12:11 52.02225 0.63534 8993 ft 252 kts 256°
2026-05-05 12:12 52.02021 0.61793 8982 ft 252 kts 264°
2026-05-05 12:12 52.01700 0.58867 8982 ft 253 kts 258°
2026-05-05 12:12 52.01279 0.56146 8995 ft 256 kts 256°
2026-05-05 12:12 52.00823 0.53455 9030 ft 255 kts 256°
2026-05-05 12:13 52.00341 0.50701 8998 ft 253 kts 255°
2026-05-05 12:13 51.99874 0.48061 8983 ft 253 kts 255°
2026-05-05 12:13 51.99372 0.45264 8962 ft 255 kts 255°
2026-05-05 12:13 51.98881 0.42531 8999 ft 255 kts 255°
2026-05-05 12:14 51.98375 0.39724 8728 ft 260 kts 255°
2026-05-05 12:14 51.97872 0.36906 8390 ft 260 kts 255°
2026-05-05 12:14 51.97364 0.34069 8051 ft 262 kts 255°
2026-05-05 12:14 51.96862 0.31256 7723 ft 262 kts 255°
2026-05-05 12:15 51.96344 0.28375 7169 ft 271 kts 255°
2026-05-05 12:15 51.95812 0.25406 6600 ft 279 kts 255°
2026-05-05 12:15 51.95278 0.22410 6196 ft 278 kts 255°
2026-05-05 12:15 51.94758 0.19464 6084 ft 266 kts 255°
2026-05-05 12:16 51.94261 0.16653 6033 ft 253 kts 255°
2026-05-05 12:16 51.93757 0.13993 5994 ft 246 kts 247°
2026-05-05 12:16 51.92885 0.11646 6007 ft 242 kts 235°
2026-05-05 12:16 51.91882 0.09601 6031 ft 243 kts 226°
2026-05-05 12:17 51.90599 0.07602 6043 ft 245 kts 222°
2026-05-05 12:17 51.89325 0.05769 5792 ft 250 kts 221°
2026-05-05 12:17 51.88001 0.03900 5457 ft 254 kts 221°
2026-05-05 12:17 51.86653 0.02030 5130 ft 256 kts 220°
2026-05-05 12:18 51.85298 0.00152 4777 ft 258 kts 220°
2026-05-05 12:18 51.83947 -0.01720 4368 ft 263 kts 221°
2026-05-05 12:18 51.82521 -0.03575 3890 ft 269 kts 211°
2026-05-05 12:18 51.80760 -0.04431 3428 ft 272 kts 180°
2026-05-05 12:19 51.78929 -0.03730 3150 ft 268 kts 149°
2026-05-05 12:19 51.77542 -0.01870 3160 ft 254 kts 132°
2026-05-05 12:19 51.76390 0.00158 3171 ft 244 kts 123°
2026-05-05 12:19 51.75793 0.02574 3117 ft 235 kts 91°
2026-05-05 12:20 51.76100 0.05044 3141 ft 227 kts 66°
2026-05-05 12:20 51.76785 0.07256 3259 ft 222 kts 61°
2026-05-05 12:20 51.77514 0.09359 3274 ft 224 kts 59°
2026-05-05 12:20 51.78359 0.11468 3363 ft 221 kts 45°
2026-05-05 12:21 51.79639 0.12797 3668 ft 221 kts 26°
2026-05-05 12:21 51.81042 0.13741 3505 ft 217 kts 21°
2026-05-05 12:21 51.82377 0.14703 3508 ft 188 kts 30°
2026-05-05 12:21 51.83372 0.15717 3389 ft 171 kts 37°
2026-05-05 12:22 51.84301 0.16957 2389 ft 180 kts 41°
2026-05-05 12:22 51.85210 0.18407 1414 ft 183 kts 45°
2026-05-05 12:22 51.86014 0.19748 1045 ft 159 kts 45°
2026-05-05 12:22 51.86819 0.20973 527 ft 151 kts 41°
2026-05-05 12:23 51.87520 0.22012 345 ft 124 kts 41°
2026-05-05 12:23 51.88012 0.22740 334 ft 68 kts 44°
2026-05-05 12:23 51.88245 0.23088 332 ft 31 kts 46°
2026-05-05 12:23 51.88307 0.23302 331 ft 6 kts 107°
2026-05-05 12:24 51.88298 0.23353 332 ft 4 kts 107°
2026-05-05 12:24 51.88280 0.23427 335 ft 12 kts 113°
2026-05-05 12:24 51.88240 0.23521 334 ft 5 kts 129°
2026-05-05 12:24 51.88232 0.23535 337 ft 2 kts 129°
2026-05-05 12:25 51.88220 0.23560 337 ft 3 kts 129°
2026-05-05 12:25 51.88200 0.23599 335 ft 6 kts 130°
2026-05-05 12:25 51.88157 0.23660 336 ft 13 kts 149°
2026-05-05 12:25 51.88047 0.23581 333 ft 24 kts 219°
2026-05-05 12:26 51.87963 0.23484 336 ft 4 kts 190°
2026-05-05 12:26 51.87939 0.23498 337 ft 8 kts 148°
2026-05-05 12:26 51.87890 0.23609 333 ft 2 kts 132°
2026-05-05 12:26 51.87887 0.23615 336 ft 0 kts 132°